Location: Newark
(42.8481°N, 0.4872°E)
Time: 17:24:49
(UTC+00:00)

A-11 Canister half - Pass Details

Date: 01 November 2020
Orbit: 1525 x 1683 km, 47.3° (Epoch: 22 November)

Event Time Altitude Azimuth Distance (km) Brightness Sun altitude
Rises 12:45:18 0° 223° (SW) 4,834 12.5 30.6°
Reaches altitude 10° 12:48:30 10° 220° (SW) 3,829 12.4 30.5°
Maximum altitude 12:57:58 59° 144° (SE) 1,773 10.1 29.9°
Drops below altitude 10° 13:07:08 10° 68° (ENE) 3,726 10.7 29.2°
Sets 13:10:12 0° 65° (ENE) 4,698 11.1 29.0°
